DW1595 Weather Reports


Display with metric or nautical units.
time (UTC)temp
F
wind
direction
speed
MPH
gust
MPH
rain 1hr
in
rain 24hr
in
rain mn
in
humidity
%
barometer
mb
20190122092353 42 328 0.0 0.0 0.00 0.00 0.00 73 1018.0
20190122091345 42 328 0.0 0.0 0.00 0.00 0.00 72 1018.0
20190122090354 42 328 0.0 0.0 0.00 0.00 0.00 72 1017.8
20190122090019 42 328 0.0 0.0 0.00 0.00 0.00 72 1018.0
20190122085347 43 328 0.0 0.0 0.00 0.00 0.00 72 1017.5
20190122084357 43 327 0.0 0.0 0.00 0.00 0.00 71 1017.5
20190122083401 43 328 0.0 0.0 0.00 0.00 0.00 71 1017.6
20190122083019 42 328 0.0 0.0 0.00 0.00 0.00 71 1017.8
20190122082351 43 327 0.0 0.0 0.00 0.00 0.00 72 1017.7
20190122081340 43 328 0.0 0.0 0.00 0.00 0.00 71 1017.7
20190122080351 44 327 0.0 0.0 0.00 0.00 0.00 71 1017.5
20190122080036 43 327 0.0 0.0 0.00 0.00 0.00 70 1017.7
20190122075344 44 328 0.0 0.0 0.00 0.00 0.00 69 1017.8
20190122074351 45 328 0.0 0.0 0.00 0.00 0.00 68 1017.8
20190122072357 44 328 0.0 0.0 0.00 0.00 0.00 67 1017.4
20190122071359 44 327 0.0 0.0 0.00 0.00 0.00 68 1017.4
20190122070340 44 329 0.0 0.0 0.00 0.00 0.00 68 1017.4
20190122070017 44 329 0.0 0.0 0.00 0.00 0.00 68 1017.6
20190122065354 44 329 0.0 0.0 0.00 0.00 0.00 68 1017.0
20190122064511 44 329 0.0 0.0 0.00 0.00 0.00 68 1017.2
20190122064401 44 329 0.0 0.0 0.00 0.00 0.00 68 1017.0
20190122063401 45 329 0.0 0.0 0.00 0.00 0.00 68 1016.9
20190122062342 45 329 0.0 0.0 0.00 0.00 0.00 67 1016.9
20190122061351 45 329 0.0 0.0 0.00 0.00 0.00 66 1016.9
20190122060340 46 329 0.0 0.0 0.00 0.00 0.00 65 1016.7
20190122060011 45 329 0.0 0.0 0.00 0.00 0.00 65 1016.9
20190122055352 46 329 0.0 0.0 0.00 0.00 0.00 65 1016.7
20190122054506 45 329 0.0 0.0 0.00 0.00 0.00 64 1016.9
20190122054402 46 329 0.0 0.0 0.00 0.00 0.00 64 1016.7
20190122053344 46 329 0.0 0.0 0.00 0.00 0.00 64 1016.4
20190122053027 46 329 0.0 0.0 0.00 0.00 0.00 65 1016.6
20190122052347 46 329 0.0 0.0 0.00 0.00 0.00 63 1016.3
20190122051355 46 329 0.0 0.0 0.00 0.00 0.00 63 1016.3
20190122050345 47 329 0.0 0.0 0.00 0.00 0.00 63 1016.0
20190122050018 46 329 0.0 0.0 0.00 0.00 0.00 62 1016.2
20190122045354 47 329 0.0 0.0 0.00 0.00 0.00 61 1015.8
20190122044504 47 329 0.0 0.0 0.00 0.00 0.00 61 1016.0
20190122044400 47 329 0.0 0.0 0.00 0.00 0.00 61 1015.8
20190122043342 48 329 0.0 0.0 0.00 0.00 0.00 60 1015.7
20190122043009 47 329 0.0 0.0 0.00 0.00 0.00 59 1015.9
20190122042347 48 329 0.0 0.0 0.00 0.00 0.00 58 1015.7
20190122041350 49 329 0.0 0.0 0.00 0.00 0.00 55 1015.7
20190122040354 49 329 0.0 0.0 0.00 0.00 0.00 53 1015.3
20190122040124 49 329 0.0 0.0 0.00 0.00 0.00 52 1015.5
20190122035344 50 329 0.0 0.0 0.00 0.00 0.00 51 1015.2
20190122034354 50 329 0.0 0.0 0.00 0.00 0.00 49 1015.2
20190122033402 51 329 0.0 0.0 0.00 0.00 0.00 47 1014.8
20190122032343 52 329 0.0 0.0 0.00 0.00 0.00 45 1014.6
20190122031346 52 329 0.0 0.0 0.00 0.00 0.00 43 1014.6
20190122030349 53 329 0.0 0.0 0.00 0.00 0.00 42 1014.6
20190122030033 53 329 0.0 0.0 0.00 0.00 0.00 41 1014.8
20190122025359 54 329 0.0 0.0 0.00 0.00 0.00 40 1014.2
20190122024349 54 329 0.0 0.0 0.00 0.00 0.00 40 1014.2
20190122023354 54 329 0.0 0.0 0.00 0.00 0.00 39 1014.0
20190122022357 54 329 1.0 0.0 0.00 0.00 0.00 39 1013.6
20190122021503 54 329 2.0 0.0 0.00 0.00 0.00 41 1013.8
20190122021401 55 329 2.0 0.0 0.00 0.00 0.00 41 1013.6
20190122020345 55 332 2.0 0.0 0.00 0.00 0.00 40 1013.6
20190122020050 55 331 2.0 0.0 0.00 0.00 0.00 40 1013.8
20190122015355 55 319 2.0 0.0 0.00 0.00 0.00 40 1013.2
20190122014349 55 311 3.0 0.0 0.00 0.00 0.00 40 1013.2
20190122013352 56 310 2.0 0.0 0.00 0.00 0.00 40 1013.2
20190122012353 57 272 2.0 0.0 0.00 0.00 0.00 38 1013.0
20190122011343 57 290 2.0 0.0 0.00 0.00 0.00 36 1013.0
20190122010351 58 324 3.0 0.0 0.00 0.00 0.00 34 1012.9
20190122010031 58 304 3.0 0.0 0.00 0.00 0.00 34 1013.0
20190122005340 58 253 2.0 0.0 0.00 0.00 0.00 33 1013.0
20190122004351 59 311 3.0 0.0 0.00 0.00 0.00 32 1013.0
20190122003355 59 306 4.0 0.0 0.00 0.00 0.00 32 1012.9
20190122002357 60 283 3.0 0.0 0.00 0.00 0.00 33 1012.9
20190122001515 60 296 3.0 0.0 0.00 0.00 0.00 31 1013.0
20190122001402 60 314 3.0 0.0 0.00 0.00 0.00 32 1012.9
20190122000350 60 232 2.0 0.0 0.00 0.00 0.00 32 1012.7
20190122000038 60 288 2.0 0.0 0.00 0.00 0.00 34 1012.8
20190121235343 60 329 3.0 0.0 0.00 0.00 0.00 35 1013.5
20190121234355 61 314 3.0 0.0 0.00 0.00 0.00 37 1013.5
20190121233340 61 314 2.0 0.0 0.00 0.00 0.00 33 1013.5
20190121233024 60 301 2.0 0.0 0.00 0.00 0.00 33 1012.7
20190121232349 61 242 3.0 0.0 0.00 0.00 0.00 35 1013.3
20190121231357 62 329 2.0 0.0 0.00 0.00 0.00 34 1013.3
20190121230342 63 178 1.0 0.0 0.00 0.00 0.00 33 1013.3
20190121230019 62 261 1.0 0.0 0.00 0.00 0.00 34 1012.5
20190121225353 63 273 2.0 0.0 0.00 0.00 0.00 34 1013.5
20190121224503 62 225 3.0 0.0 0.00 0.00 0.00 34 1012.7
20190121224401 63 250 3.0 0.0 0.00 0.00 0.00 33 1013.5
20190121223346 63 244 2.0 0.0 0.00 0.00 0.00 33 1013.3
20190121222353 62 290 2.0 0.0 0.00 0.00 0.00 33 1013.3
20190121221343 62 253 3.0 0.0 0.00 0.00 0.00 34 1013.3
20190121220350 62 142 4.0 0.0 0.00 0.00 0.00 33 1013.8
20190121220022 62 213 4.0 0.0 0.00 0.00 0.00 34 1013.0
20190121215400 63 184 3.0 0.0 0.00 0.00 0.00 33 1013.8
20190121214347 63 269 3.0 0.0 0.00 0.00 0.00 32 1013.8
20190121213354 63 258 3.0 0.0 0.00 0.00 0.00 33 1013.9
20190121212343 63 304 3.0 0.0 0.00 0.00 0.00 33 1014.3
20190121211348 63 205 3.0 0.0 0.00 0.00 0.00 33 1014.3
20190121210357 63 180 3.0 0.0 0.00 0.00 0.00 34 1014.3
20190121210010 62 286 3.0 0.0 0.00 0.00 0.00 33 1013.5
20190121205349 62 164 4.0 0.0 0.00 0.00 0.00 34 1014.8
20190121204346 62 199 2.0 0.0 0.00 0.00 0.00 32 1014.8
20190121203352 62 272 3.0 0.0 0.00 0.00 0.00 32 1015.2
20190121202358 62 269 3.0 0.0 0.00 0.00 0.00 34 1014.9
20190121201505 62 216 2.0 0.0 0.00 0.00 0.00 33 1014.1
20190121201402 62 269 2.0 0.0 0.00 0.00 0.00 33 1014.9
20190121200348 62 260 3.0 0.0 0.00 0.00 0.00 33 1015.4
20190121200026 62 298 3.0 0.0 0.00 0.00 0.00 33 1014.6
20190121195344 62 269 3.0 0.0 0.00 0.00 0.00 32 1015.3
20190121194350 62 237 3.0 0.0 0.00 0.00 0.00 34 1015.3
20190121193353 62 263 4.0 0.0 0.00 0.00 0.00 32 1015.4
20190121192357 62 266 3.0 0.0 0.00 0.00 0.00 32 1015.9
20190121191345 62 280 2.0 0.0 0.00 0.00 0.00 32 1015.9
20190121190351 61 276 2.0 0.0 0.00 0.00 0.00 33 1016.4
20190121190007 61 330 2.0 0.0 0.00 0.00 0.00 33 1015.6
20190121185349 61 271 2.0 0.0 0.00 0.00 0.00 33 1016.6
20190121184353 61 153 2.0 0.0 0.00 0.00 0.00 35 1016.6
20190121183357 60 225 2.0 0.0 0.00 0.00 0.00 36 1016.9
20190121182344 60 249 2.0 0.0 0.00 0.00 0.00 36 1017.0
20190121181354 60 318 0.0 0.0 0.00 0.00 0.00 39 1017.0
20190121180341 59 319 1.0 0.0 0.00 0.00 0.00 41 1017.0
20190121180041 58 319 1.0 0.0 0.00 0.00 0.00 43 1016.2
20190121175340 58 319 1.0 0.0 0.00 0.00 0.00 44 1017.1
20190121174351 57 210 1.0 0.0 0.00 0.00 0.00 46 1017.1
20190121173356 56 209 1.0 0.0 0.00 0.00 0.00 47 1017.4
20190121172344 56 209 1.0 0.0 0.00 0.00 0.00 49 1017.4
20190121171353 55 235 0.0 0.0 0.00 0.00 0.00 54 1017.4
20190121170342 55 234 1.0 0.0 0.00 0.00 0.00 56 1017.3
20190121170022 54 235 1.0 0.0 0.00 0.00 0.00 63 1016.6
20190121165357 54 234 1.0 0.0 0.00 0.00 0.00 65 1017.1
20190121164346 54 235 0.0 0.0 0.00 0.00 0.00 77 1017.1
20190121163351 53 235 0.0 0.0 0.00 0.00 0.00 81 1016.8
20190121162340 51 234 0.0 0.0 0.00 0.00 0.00 84 1016.8
20190121161351 50 234 0.0 0.0 0.00 0.00 0.00 89 1016.8
20190121160339 49 234 0.0 0.0 0.00 0.00 0.00 93 1016.8
20190121160012 48 234 0.0 0.0 0.00 0.00 0.00 93 1016.0
20190121155350 47 234 0.0 0.0 0.00 0.00 0.00 93 1016.4
20190121154351 46 234 0.0 0.0 0.00 0.00 0.00 92 1016.4
20190121153356 46 234 0.0 0.0 0.00 0.00 0.00 92 1016.1
20190121153006 45 234 0.0 0.0 0.00 0.00 0.00 91 1015.3
20190121152346 46 234 0.0 0.0 0.00 0.00 0.00 91 1015.8
20190121150343 46 234 0.0 0.0 0.00 0.00 0.00 90 1015.9
20190121150013 46 234 0.0 0.0 0.00 0.00 0.00 90 1015.1
20190121145355 47 234 0.0 0.0 0.00 0.00 0.00 90 1015.7
20190121144342 47 234 0.0 0.0 0.00 0.00 0.00 90 1015.7
20190121143345 48 234 0.0 0.0 0.00 0.00 0.00 90 1015.4
20190121142355 48 234 0.0 0.0 0.00 0.00 0.00 89 1015.2
20190121141342 48 234 0.0 0.0 0.00 0.00 0.00 89 1015.2
20190121140356 49 234 0.0 0.0 0.00 0.00 0.00 88 1015.0
20190121140008 49 234 0.0 0.0 0.00 0.00 0.00 88 1014.2
20190121135351 49 234 0.0 0.0 0.00 0.00 0.00 88 1015.1
20190121134358 50 234 0.0 0.0 0.00 0.00 0.00 88 1015.1
20190121133342 50 234 0.0 0.0 0.00 0.00 0.00 89 1015.1
20190121132346 50 234 0.0 0.0 0.00 0.00 0.00 89 1015.0
20190121131351 50 234 0.0 0.0 0.00 0.00 0.00 88 1015.0
20190121130344 50 234 0.0 0.0 0.00 0.00 0.00 88 1014.9
20190121130046 50 234 0.0 0.0 0.00 0.00 0.00 88 1014.2
20190121125355 50 234 0.0 0.0 0.00 0.00 0.00 88 1014.5
20190121124358 51 234 0.0 0.0 0.00 0.00 0.00 88 1014.5
20190121123344 51 234 0.0 0.0 0.00 0.00 0.00 87 1014.7
20190121122352 52 234 0.0 0.0 0.00 0.00 0.00 87 1014.5
20190121121346 52 234 0.0 0.0 0.00 0.00 0.00 87 1014.5
20190121120351 52 235 0.0 0.0 0.00 0.00 0.00 88 1014.3
20190121120025 52 235 1.0 0.0 0.00 0.00 0.00 88 1013.5
20190121115342 52 236 1.0 0.0 0.00 0.00 0.00 88 1014.3
20190121114347 53 240 0.0 0.0 0.00 0.00 0.00 89 1014.3
20190121113349 53 240 0.0 0.0 0.00 0.00 0.00 89 1014.3
20190121112338 54 240 1.0 0.0 0.00 0.00 0.00 89 1014.2
20190121111351 54 267 1.0 0.0 0.00 0.00 0.00 89 1014.2
20190121110351 54 271 2.0 0.0 0.00 0.00 0.00 90 1014.4
20190121110030 54 256 1.0 0.0 0.00 0.00 0.00 90 1013.6
20190121105342 55 275 0.0 0.0 0.00 0.00 0.00 91 1014.7
20190121104345 55 275 0.0 0.0 0.00 0.00 0.00 90 1014.7
20190121103352 55 275 0.0 0.0 0.00 0.00 0.00 90 1014.6
20190121102355 55 275 0.0 0.0 0.00 0.00 0.00 90 1014.7
20190121101342 55 299 1.0 0.0 0.00 0.00 0.00 90 1014.7
20190121100349 55 299 0.0 0.0 0.00 0.00 0.00 89 1014.6
20190121100026 54 300 0.0 0.0 0.00 0.00 0.00 89 1013.9
20190121095358 55 300 0.0 0.0 0.00 0.00 0.00 89 1014.4
20190121094345 55 300 0.0 0.0 0.00 0.00 0.00 89 1014.4
20190121093352 55 300 0.0 0.0 0.00 0.00 0.00 89 1014.5